Aérodrome :
LOGIN :

S'inscrire | Disclaimer

   EN    FR    IT 

 










Légende :    VFR   VFR Marginal   IFR   IFR Intensif   IFR Très Intensif
Visi : 
Plafond : 
>= 8 km
>= 3000ft
5 à 8 km
1000 à 3000 ft
1500m à 5 km
500 à 1000 ft
800 à 1500m
200 à 500 ft
< 800m
< 200 ft
Symboles :   Orages  Brouillard  Fortes neiges  Fortes précipitations  Vent > 20 kt
SIGMETs :   Divers  Orages  Givrage  Turbulence  Onde Orograph.  Cendres Volcan.







- Altitude de l'aérodrome : 1276 ft
- Code IATA : STR


EDDS - Stuttgart

DERNIER METAR :
  • 280050Z VRB02KT CAVOK 15/11 Q1020

METARs EXPIRÉS :
  • 280020Z 32004KT CAVOK 15/11 Q1020
  • 272350Z VRB01KT CAVOK 15/11 Q1020
  • 272320Z 20001KT CAVOK 17/11 Q1020
  • 272250Z VRB02KT CAVOK 18/11 Q1020
  • 272220Z 07002KT CAVOK 18/11 Q1020

TAF TAF EDDS
Valide du 28 à 00h jusqu'au 29 à 00h UTC


272300Z 2800/2824 VRB03KT CAVOK
Pas de NOTAMs connus pour ce terrain.



MET'MAP, la Météo Aéronautique d'un coup d'oeil ! - Copyright ORBIFLY Décembre 2007 - Disclaimer

ORBIFLY MET'MAP TEAM :

Programmation & Développement : Alexandra Zaïnal
Conception & Développement : Baudouin d'Aumeries
Co-Programmation & Développement : Marc-Olivier Méhu
Soutien technique & logistique : Manuel Goepfert

Contact : metmap@orbifly.com




SOURCES & CREDITS :

   NOAA